Flag for Switzerland Weather past 2 weeks in Lugano, Switzerland

Now
72 °F

Scattered showers. Passing clouds.


Feels Like: 71 °F
Forecast: 57 / 77 °F
Wind: 2 mph from North

Location: Lugano Airport

Current Time: Jul 25, 2014 at 8:57:03 PM

Latest Report: Jul 25, 2014 at 8:20 PM


Visibility: N/A

Pressure: 29.89 "Hg

Humidity: 83%

Dew point: 66 °F

Location of LuganoLocation

Historic Weather in Lugano — Graph

°F

Lugano temperature yesterday

Maximum temperature yesterday: 75 °F (at 2:20 PM)
Minimum temperature yesterday: 64 °F (at 12:50 AM)
Average temperature yesterday: 69 °F

Past Weeks' High & Low Weather Summary

 TemperatureHumidityPressure
High88 °F (Jul 17, 3:50 PM)100% (Jul 12, 10:50 PM)30.15 "Hg (Jul 12, 10:50 PM)
Low37 °F (Jul 15, 8:50 AM)37% (Jul 11, 4:20 PM)29.71 "Hg (Jul 10, 7:20 PM)
Average71 °F75%29.95 "Hg
* Reported Jul 10 7:20 PM — Jul 25 7:20 PM, Lugano, Weather by CustomWeather, © 2014

Note: Actual official high and low records may vary slightly from our data, if they occured in-between our weather recording intervals... More about our weather records

Advertising

Lugano weather history for previous 24 hours

 ConditionsComfort  
Time TempWeatherWind HumidityBarometerVisibility
7:20 PM
Jul 25
79 °FScattered clouds.3 mph58%29.89 "HgN/A
6:50 PM79 °FScattered clouds.5 mph58%29.89 "HgN/A
6:20 PM79 °FScattered clouds.3 mph58%29.89 "HgN/A
5:50 PM79 °FScattered clouds.5 mph61%29.89 "HgN/A
5:20 PM79 °FScattered clouds.6 mph61%29.89 "HgN/A
4:50 PM79 °FScattered clouds.7 mph61%29.89 "HgN/A
4:20 PM79 °FScattered clouds.7 mph58%29.92 "HgN/A
3:50 PM79 °FScattered clouds.8 mph54%29.92 "HgN/A
3:20 PM81 °FWarm.9 mph54%29.92 "HgN/A
2:20 PM79 °FPassing clouds.7 mph54%29.92 "HgN/A
1:50 PM79 °FPassing clouds.6 mph58%29.92 "HgN/A
1:20 PM77 °FPassing clouds.6 mph61%29.92 "HgN/A
12:50 PM77 °FPassing clouds.5 mph61%29.95 "HgN/A
12:20 PM75 °FPassing clouds.6 mph61%29.95 "HgN/A
11:50 AM75 °FPassing clouds.6 mph65%29.95 "HgN/A
11:20 AM73 °FPassing clouds.3 mph65%29.95 "HgN/A
10:50 AM73 °FPassing clouds.2 mph69%29.95 "HgN/A
10:20 AM72 °FPassing clouds.2 mph73%29.95 "HgN/A
9:50 AM70 °FPassing clouds.2 mph83%29.95 "HgN/A
9:20 AM68 °FPassing clouds.2 mph83%29.95 "HgN/A
8:50 AM68 °FScattered clouds.1 mph83%29.95 "HgN/A
8:20 AM64 °FPartly sunny.1 mph94%29.95 "Hg5 mi
7:50 AM64 °FPartly sunny.1 mph94%29.95 "Hg5 mi
7:20 AM63 °FScattered clouds.2 mph94%29.95 "Hg5 mi
6:50 AM63 °FPassing clouds.2 mph94%29.92 "Hg5 mi
6:20 AM61 °FPassing clouds.1 mph100%29.92 "Hg5 mi
5:50 AM61 °FPassing clouds.1 mph100%29.92 "Hg6 mi
5:20 AM61 °FPartly cloudy.1 mph100%29.92 "Hg5 mi
4:50 AM63 °FPassing clouds.1 mph94%29.92 "HgN/A
4:20 AM63 °FPassing clouds.3 mph94%29.92 "HgN/A
3:50 AM63 °FPassing clouds.1 mph100%29.92 "Hg4 mi
3:20 AM64 °FLight rain. Low clouds.1 mph94%29.92 "Hg6 mi
2:50 AM63 °FLight rain. Passing clouds.2 mph100%29.95 "Hg6 mi
2:20 AM64 °FRain showers. Passing clouds.2 mph94%29.95 "Hg5 mi
1:50 AM64 °FStrong thunderstorms. Passing clouds.5 mph94%29.95 "Hg2 mi
1:20 AM66 °FLight rain. Fog.1 mph94%29.95 "Hg2 mi
12:50 AM66 °FThunderstorms. Partly cloudy.1 mph94%29.95 "Hg5 mi
12:20 AM68 °FThunderstorms. Partly cloudy.8 mph88%29.95 "HgN/A
11:50 PM
Jul 24
70 °FPartly cloudy.5 mph78%29.95 "HgN/A
11:20 PM70 °FMostly cloudy.7 mph78%29.95 "HgN/A
10:50 PM70 °FPartly cloudy.7 mph78%29.95 "HgN/A
10:20 PM70 °FPartly cloudy.3 mph83%29.92 "HgN/A
9:50 PM70 °FBroken clouds.2 mph78%29.92 "Hg6 mi
9:20 PM70 °FBroken clouds.3 mph78%29.89 "Hg6 mi
8:50 PM70 °FScattered showers. Broken clouds.3 mph78%29.89 "Hg6 mi
8:20 PM72 °FPartly sunny.6 mph73%29.89 "Hg6 mi
Weather by CustomWeather, © 2014

See weather overviewHow to use our weather pages